Wind_Speed
105 106 106 107 108 108 109 109 110 110 110 110 110 111 111 111 111 111 111 111 111 112 112 112 112 112 113 113 112 112 111 110 110 109 109 109 109 109 109 109 109 107 106 106 106 106 105 105 104 104 104 105 105 105 106 106 106 106 106 107 107 107 108
103 104 105 105 106 107 108 108 109 109 109 109 109 110 110 110 110 110 110 111 111 111 112 111 111 111 112 113 112 111 111 110 110 110 109 109 109 108 108 108 108 107 106 105 106 106 105 104 104 104 104 105 105 106 106 106 106 105 105 105 106 106 107
101 102 103 103 104 105 106 107 108 108 108 108 109 109 109 109 109 109 109 109 109 110 110 110 110 110 111 111 110 110 110 110 110 110 110 109 109 108 108 107 107 106 105 105 105 106 105 105 104 104 104 105 105 106 106 105 105 105 105 105 105 105 105
99 100 101 102 103 104 105 105 106 107 107 107 108 108 108 109 108 108 108 108 108 108 108 108 107 108 109 109 108 108 108 109 110 110 109 109 109 108 108 108 107 106 106 105 105 105 106 106 105 105 105 106 106 106 105 105 105 105 104 104 104 104 104
97 98 99 100 101 102 103 104 104 105 106 106 107 107 108 108 108 108 108 107 107 107 107 106 106 106 107 107 107 107 108 109 109 109 109 108 108 108 109 109 108 108 107 106 105 105 106 106 106 106 106 106 106 106 105 105 105 105 104 103 103 102 102
97 97 98 99 100 100 101 102 103 104 104 105 106 106 107 107 107 107 107 107 107 107 107 106 106 106 107 107 106 107 108 108 109 109 109 108 109 109 109 109 109 109 108 107 106 106 106 106 107 108 108 107 106 106 105 105 105 104 104 103 103 102 102
97 97 98 99 99 100 101 102 102 103 104 105 105 106 106 107 107 107 107 107 107 107 107 107 107 107 107 107 107 108 108 109 109 109 109 109 109 110 110 110 110 109 109 108 107 106 106 107 108 108 108 107 106 106 106 105 105 104 103 104 103 103 103
97 98 99 99 100 100 101 102 103 103 104 105 105 106 106 106 107 107 107 107 107 108 108 108 108 109 109 109 109 109 109 109 109 110 109 109 110 110 110 110 109 109 109 108 107 107 107 108 108 108 108 108 107 107 107 106 105 104 105 105 105 104 104
98 99 99 100 100 101 102 103 103 104 105 105 105 106 106 106 107 107 107 107 108 108 109 109 109 110 110 110 110 111 111 111 111 111 110 110 110 110 110 109 109 109 108 108 107 107 108 108 108 108 108 108 108 108 108 107 107 106 106 107 106 106 106
98 99 100 101 101 102 103 103 104 105 105 105 106 106 106 106 107 107 108 108 108 109 109 110 110 111 111 111 111 111 111 112 111 111 111 110 110 110 109 109 109 108 108 108 108 108 108 108 108 109 110 109 109 109 109 108 108 107 107 108 107 107 107
99 100 100 101 102 103 103 104 105 105 106 106 106 107 107 107 108 108 108 109 109 109 110 110 110 111 111 111 111 112 112 112 112 111 111 111 110 110 110 109 108 108 108 108 108 109 109 109 109 110 111 111 111 111 110 109 109 108 108 108 108 107 108
99 100 101 101 102 103 104 105 105 106 106 106 107 107 108 108 108 108 108 108 109 109 109 110 110 111 111 111 112 112 112 112 112 112 112 111 111 111 110 110 109 109 109 109 110 110 110 110 111 112 112 112 111 111 110 110 110 109 109 109 108 108 108
100 100 101 101 102 103 104 105 106 106 107 107 108 108 108 108 108 108 108 108 108 109 109 110 110 110 111 111 112 112 113 113 113 113 113 113 112 112 112 111 112 112 112 112 112 112 111 112 112 112 112 112 112 111 110 110 111 110 110 109 108 108 108
101 102 102 102 103 103 104 106 107 107 108 108 109 109 109 109 108 108 108 108 109 109 109 110 110 110 111 111 112 112 113 114 114 114 114 114 114 114 114 114 114 114 114 114 113 113 112 112 112 111 111 112 112 112 111 111 111 111 110 109 108 108 109
103 103 104 104 104 105 105 107 108 108 108 109 110 110 110 110 109 109 109 109 109 110 110 111 111 111 111 111 112 113 114 114 115 115 115 115 115 115 115 115 115 114 114 114 114 113 113 113 112 112 112 112 113 113 112 112 111 111 110 110 109 108 109
104 105 105 106 106 106 106 107 108 109 109 109 110 110 110 110 110 110 109 109 109 109 110 110 111 111 111 111 112 113 114 115 116 116 115 115 115 114 114 114 114 114 114 114 114 114 113 113 113 113 113 113 113 113 113 112 111 111 111 110 109 108 108
105 106 106 107 107 108 108 108 109 110 110 110 110 110 110 110 110 110 110 110 110 110 110 110 111 111 112 112 112 113 114 115 115 115 115 115 114 114 114 114 114 115 115 115 114 114 113 113 113 113 113 114 114 113 113 112 111 111 111 109 108 108 108
106 106 107 107 108 108 109 109 110 110 111 110 111 111 111 110 110 110 110 110 111 111 110 110 111 111 111 112 112 113 114 114 115 115 115 115 114 114 113 113 114 115 115 115 114 113 112 112 113 114 114 114 114 113 113 112 111 111 110 109 107 107 108
106 107 107 108 108 109 109 109 110 111 112 111 111 111 111 111 110 110 110 111 111 111 110 110 110 111 111 112 112 113 114 114 114 115 115 115 114 113 113 113 114 115 114 114 113 112 111 112 113 114 114 114 114 113 112 112 111 111 110 108 107 107 107
106 107 107 108 108 108 108 109 110 111 111 112 112 111 111 110 110 110 110 110 111 110 110 110 110 111 111 112 112 113 113 114 114 114 114 114 113 113 113 114 114 114 113 113 112 111 111 112 113 113 113 113 113 112 111 111 110 109 108 108 107 106 106
106 106 106 107 108 108 108 108 109 110 110 111 111 112 111 110 110 109 110 110 110 110 110 110 110 111 111 112 112 113 113 114 114 113 113 113 113 113 113 113 113 113 113 112 112 111 111 111 111 112 112 112 111 111 110 110 109 108 107 106 106 105 104
106 105 106 107 108 108 108 108 109 109 110 110 111 112 111 111 110 109 109 109 108 109 109 109 110 111 111 112 112 112 113 114 114 113 112 112 112 112 112 112 112 112 112 111 111 111 110 110 110 110 110 110 110 110 110 109 107 106 106 105 104 103 102
105 105 105 106 106 107 108 108 109 109 109 110 110 111 111 111 110 109 109 108 107 107 107 108 109 110 110 111 111 111 112 113 113 113 111 110 111 112 111 111 110 110 110 110 110 109 109 108 108 109 109 109 109 109 108 107 105 104 104 103 102 101 100
104 104 104 105 105 106 107 108 108 108 108 109 109 110 110 110 109 108 108 108 107 106 106 107 108 108 109 110 110 110 111 112 112 112 111 110 110 111 111 110 109 109 109 109 108 107 107 107 107 107 107 108 108 107 106 105 104 103 101 101 100 98 97
103 103 103 103 104 104 105 106 107 108 108 108 108 108 108 107 107 107 107 107 106 106 105 106 106 107 108 109 109 110 110 111 111 112 111 111 110 110 109 109 108 108 108 107 106 106 105 105 105 105 105 105 105 105 105 104 103 101 99 98 97 96 95
101 101 102 102 102 103 104 105 106 107 107 108 108 108 107 106 106 105 105 105 105 105 104 104 105 106 106 107 108 109 109 109 110 111 111 110 109 108 107 106 105 105 105 105 105 104 103 103 102 102 102 102 102 103 103 102 101 98 97 96 95 94 93
99 99 100 100 100 101 102 103 104 105 105 106 106 107 107 106 105 104 104 104 104 104 104 104 104 105 105 105 106 107 107 107 108 108 109 109 108 106 104 102 101 101 101 102 103 102 101 100 100 99 100 100 100 101 101 100 98 97 95 94 93 93 92
98 98 98 98 98 99 100 100 102 103 104 104 104 105 105 105 104 103 102 102 102 102 102 102 103 103 103 104 104 104 105 105 105 106 106 106 106 105 102 100 99 99 99 100 100 100 99 98 97 98 98 98 99 99 99 98 96 95 94 93 92 92 91
97 97 97 97 97 97 98 98 99 101 101 101 101 102 103 103 103 101 100 100 100 100 100 100 101 101 101 101 102 102 102 102 102 103 103 103 103 103 101 100 99 98 98 98 98 97 96 95 94 95 95 95 96 96 96 95 94 93 93 93 92 91 90
95 95 96 95 95 95 95 96 97 99 99 98 98 99 100 101 101 100 99 98 98 98 98 98 98 99 99 98 99 99 99 99 100 100 100 100 100 99 99 98 98 97 97 96 95 94 94 92 92 91 92 92 92 92 92 92 91 91 91 91 91 90 89
93 93 94 94 94 94 94 94 95 96 96 96 97 97 97 98 98 99 98 97 96 96 96 96 96 96 96 96 96 96 96 96 96 96 96 97 97 96 96 96 95 95 94 94 93 93 92 91 90 89 90 90 90 90 90 90 89 89 89 89 89 88 88
93 92 92 92 92 92 93 94 94 94 94 95 96 95 95 95 96 97 97 96 95 94 94 94 94 94 94 94 93 93 93 93 93 93 94 94 94 94 93 93 93 92 92 91 92 92 91 90 89 89 89 89 88 88 88 88 88 87 87 87 87 87 86
92 92 91 91 90 90 91 92 92 93 93 93 93 93 93 93 94 94 94 94 94 94 93 93 93 93 93 92 92 91 91 91 91 91 91 91 91 91 91 90 90 90 90 90 90 90 90 89 89 88 88 88 87 87 87 86 86 85 85 85 85 85 84
90 90 90 89 89 88 88 88 89 91 91 91 91 91 91 91 92 92 92 91 91 92 92 91 90 91 91 91 90 89 89 89 89 89 89 89 89 90 89 89 89 89 89 89 89 89 89 89 88 87 87 86 85 85 84 84 84 83 83 83 83 82 82
87 86 86 87 87 86 86 86 86 87 88 89 89 89 89 89 89 89 89 88 88 89 91 90 89 88 88 89 88 88 87 87 88 88 88 87 88 88 88 88 88 88 88 88 87 87 86 86 85 85 84 83 83 82 82 81 81 80 80 80 80 79 78
86 84 83 83 83 83 84 84 84 84 85 86 86 86 86 87 87 87 87 87 86 87 88 89 89 88 87 87 87 87 87 86 87 87 87 86 86 86 86 86 86 85 85 85 85 84 83 82 82 82 81 81 80 80 79 78 78 77 77 77 76 76 75
Wind_Direction
263 263 264 264 265 265 266 266 266 267 267 267 268 268 268 269 270 270 270 271 271 272 272 272 272 273 273 274 274 275 275 275 275 275 275 275 275 275 275 275 275 275 275 275 275 275 274 274 275 275 274 274 274 274 274 274 274 274 275 275 275 275 275
263 263 264 264 265 265 266 266 267 267 267 267 268 268 268 269 269 269 270 270 271 271 271 272 272 273 273 274 275 275 275 276 276 275 275 275 274 274 274 275 275 275 275 275 275 275 275 275 275 275 275 274 274 274 274 274 274 275 275 275 275 275 275
263 263 264 264 265 265 266 266 267 267 268 268 268 268 268 269 269 269 269 270 270 270 271 272 272 273 273 274 274 275 275 275 275 275 275 275 275 275 275 275 275 275 275 275 276 276 276 276 275 275 275 275 275 275 275 275 275 275 275 275 275 275 275
263 264 264 265 265 266 266 267 267 268 268 269 269 269 269 269 269 269 270 270 270 270 271 271 272 272 272 273 274 274 274 274 274 275 275 275 276 276 276 276 276 276 276 276 276 276 276 276 276 276 276 275 275 275 275 275 276 276 276 275 275 275 275
263 264 264 265 265 266 266 267 268 268 269 269 269 269 270 270 270 270 270 270 271 271 271 271 271 271 272 272 273 273 273 274 274 275 275 276 276 276 276 276 276 276 276 276 276 276 276 277 277 276 276 275 276 276 276 276 276 276 276 276 276 276 276
263 263 264 264 265 265 266 267 267 268 268 269 269 269 270 270 271 271 271 271 272 272 272 272 272 272 272 273 273 273 273 274 274 275 275 275 275 276 276 276 276 276 276 276 277 277 277 277 277 277 276 276 277 277 277 277 277 277 277 277 277 277 277
263 264 264 264 264 265 265 266 266 267 267 268 268 269 270 270 271 271 272 272 273 273 273 273 273 273 273 273 274 274 274 274 274 274 275 275 275 275 275 275 276 276 276 277 277 277 277 277 277 277 278 278 278 278 278 278 278 278 278 278 278 278 278
264 264 264 264 265 265 265 265 266 266 267 267 268 269 269 270 271 271 272 272 273 273 273 274 274 274 274 274 274 274 275 275 275 275 275 275 275 275 275 276 276 276 277 277 278 278 278 278 278 278 279 279 279 279 279 279 279 279 280 279 279 279 278
265 265 265 265 265 265 266 266 266 266 267 267 268 268 269 270 270 271 271 272 272 273 273 273 274 274 275 275 275 275 276 276 276 276 276 276 276 276 276 277 277 277 277 278 278 278 278 278 279 279 279 279 279 279 280 280 280 280 280 280 280 279 279
266 267 267 267 267 267 267 267 268 268 268 268 269 269 269 270 270 270 271 271 272 272 273 273 274 274 274 275 275 275 276 276 276 276 277 277 277 277 277 277 277 278 278 278 278 278 278 279 279 279 279 279 280 280 280 280 280 280 280 280 279 279 279
267 267 267 268 268 268 268 268 269 269 269 269 269 270 270 270 270 270 271 271 271 272 272 273 273 274 274 275 275 275 276 276 276 277 277 277 277 277 277 278 278 278 278 278 278 279 279 279 279 279 279 280 280 280 280 280 280 280 279 279 279 279 279
267 267 267 267 268 268 268 269 269 269 269 269 269 270 270 270 270 270 271 271 272 272 273 273 273 274 274 275 275 276 276 276 277 277 277 277 277 278 278 278 278 278 279 279 279 279 279 279 279 279 280 280 280 280 280 280 279 279 279 279 279 279 279
268 268 268 268 268 269 269 269 270 270 270 270 270 270 271 271 271 271 272 272 272 273 273 273 274 274 275 275 275 276 276 276 277 277 277 277 278 278 278 278 279 279 279 279 279 279 279 279 279 279 279 279 279 279 279 279 279 279 279 279 279 279 279
270 270 270 270 270 270 270 270 270 270 271 271 271 271 272 272 272 272 272 273 273 273 274 274 274 274 274 275 275 275 276 276 276 276 276 277 277 278 278 278 278 278 279 279 278 278 278 278 278 278 279 279 279 279 279 279 278 278 279 279 279 278 278
271 271 271 271 270 270 270 271 271 271 271 271 272 272 272 272 273 273 273 273 273 273 273 273 274 274 274 274 274 275 275 275 275 276 276 276 276 277 277 277 277 277 278 278 278 278 278 278 278 278 278 278 278 278 278 278 278 278 278 278 278 278 278
271 271 271 271 271 271 271 271 271 271 271 271 271 272 272 272 272 272 272 272 272 272 272 273 273 273 273 274 274 274 274 274 275 275 275 275 276 276 276 276 276 277 277 277 277 277 277 277 278 278 278 278 277 277 277 277 277 277 277 278 278 278 278
270 271 271 271 271 271 271 271 271 271 271 271 271 271 272 272 272 272 272 272 272 272 272 272 273 273 273 273 274 274 274 274 274 274 274 275 275 275 275 275 276 276 276 276 276 276 276 277 277 277 277 276 276 276 277 277 277 277 277 278 278 278 278
271 271 271 271 271 271 272 272 272 272 272 272 272 272 272 272 272 272 272 272 272 272 272 272 272 273 273 273 273 273 273 273 273 273 274 274 274 274 274 275 275 274 274 275 275 276 276 276 276 276 276 276 276 276 276 277 277 277 277 277 277 277 277
271 271 271 271 271 271 271 272 272 272 272 272 272 272 272 272 272 272 272 272 272 272 272 272 272 272 272 272 272 272 272 272 272 273 273 273 273 274 274 274 274 274 274 275 275 275 275 275 275 275 275 275 276 276 276 276 277 277 277 277 277 276 276
271 271 271 271 271 271 271 271 271 271 272 272 272 272 272 272 272 272 272 272 272 272 272 273 273 272 272 272 272 272 272 272 272 272 273 273 273 274 274 273 273 274 274 274 274 274 274 274 274 275 275 275 275 276 276 276 276 276 277 277 277 276 276
271 271 271 271 271 271 271 271 271 271 271 272 272 272 272 272 271 271 271 271 272 272 272 272 272 272 272 272 272 272 272 272 272 272 272 273 273 273 273 273 273 273 274 274 274 274 274 274 274 275 275 275 276 276 276 276 276 276 276 276 276 276 276
271 271 271 271 271 271 271 271 271 271 271 271 271 271 271 271 271 271 271 271 271 271 271 272 272 272 271 271 272 272 272 272 272 272 272 272 272 272 272 273 273 273 273 274 274 274 274 274 275 275 275 276 276 276 275 275 276 276 276 276 276 276 276
271 271 270 270 270 271 271 271 271 271 270 270 271 271 271 271 271 271 271 271 270 270 270 271 271 271 271 271 271 271 272 272 272 272 272 272 272 272 272 272 273 273 273 273 274 274 274 275 275 275 275 275 275 275 275 276 276 275 275 275 275 276 276
270 270 270 270 270 270 270 270 270 270 270 270 270 270 270 270 271 271 271 271 271 271 271 271 271 271 272 272 272 272 272 272 273 273 273 272 272 272 272 273 273 273 273 274 274 274 275 275 275 275 275 275 275 276 276 276 275 275 275 275 276 276 276
271 271 271 271 271 271 271 271 271 271 271 271 271 271 271 271 271 271 271 271 271 271 271 271 271 271 272 272 272 272 272 272 273 273 273 272 272 272 273 273 273 274 274 274 274 275 274 274 274 275 275 275 276 276 276 276 275 275 275 275 275 276 276
270 270 271 270 271 271 271 271 271 271 271 272 272 272 272 271 271 271 272 272 272 272 271 271 271 271 271 271 271 272 272 272 272 273 273 273 273 272 273 273 273 274 274 275 275 275 275 274 274 275 275 275 275 275 275 275 275 275 276 275 276 276 275
271 271 270 270 270 270 270 270 270 271 271 271 271 272 272 272 271 271 271 271 271 271 271 271 271 271 271 271 271 271 272 272 272 273 273 273 274 274 273 274 274 274 274 274 274 275 275 275 275 275 275 276 276 276 276 276 276 276 276 276 276 276 275
272 272 271 271 271 271 270 271 271 271 271 271 271 272 272 272 272 272 271 271 271 271 271 271 271 271 271 271 272 272 272 272 273 273 273 274 274 275 275 275 275 274 274 274 274 274 274 274 275 275 275 275 276 276 276 276 277 277 277 277 276 276 275
273 273 273 272 272 272 272 272 272 272 272 272 272 272 273 273 273 272 272 272 272 272 272 271 271 271 271 271 272 272 272 272 272 273 273 273 274 275 275 275 275 275 274 274 273 273 274 274 274 274 274 274 275 275 276 276 276 276 276 276 276 276 276
274 274 274 274 274 273 273 273 273 273 273 273 273 273 273 273 273 273 273 272 272 272 272 272 271 271 271 271 271 271 272 272 272 272 273 273 274 274 275 275 275 275 274 274 275 275 274 274 274 274 274 274 274 274 275 275 275 275 275 276 276 276 275
274 274 274 274 274 274 274 273 273 273 273 273 273 273 273 273 274 274 273 273 272 272 272 272 272 272 272 272 272 272 272 272 272 273 273 273 274 274 274 274 275 275 275 275 276 276 275 275 275 275 275 274 274 274 275 275 275 275 275 275 275 275 275
275 274 274 274 273 274 274 274 273 273 273 273 273 273 273 273 273 274 274 274 274 273 273 273 273 273 273 273 273 273 273 273 273 273 273 274 274 274 274 274 275 275 275 275 275 275 276 276 275 275 275 275 274 274 275 275 275 275 275 275 275 275 275
274 274 274 274 273 273 273 273 273 273 273 273 273 273 273 273 273 273 273 274 274 274 274 273 273 273 273 273 273 273 273 273 273 273 273 274 274 274 274 274 275 275 275 275 275 275 275 275 275 275 275 275 274 274 274 274 274 274 274 274 274 274 274
273 273 273 273 273 273 272 272 273 273 273 273 273 273 273 273 273 273 273 273 274 274 274 273 273 273 273 273 273 273 273 273 273 273 273 273 273 274 274 274 274 274 274 274 274 274 275 275 275 274 274 274 274 274 274 274 273 273 273 273 273 273 273
273 272 272 273 273 273 273 272 272 272 272 273 273 273 273 273 273 273 273 273 273 273 273 273 273 273 273 273 273 272 272 272 272 272 272 272 273 273 273 273 273 273 274 274 274 274 274 274 274 274 274 274 273 273 273 272 272 272 272 272 272 272 273
274 273 272 272 272 272 273 272 272 272 272 272 272 272 272 273 273 273 273 273 272 272 273 273 273 273 272 272 272 272 272 272 272 272 272 272 272 272 272 273 273 272 273 273 273 273 273 273 273 273 273 273 272 272 272 272 272 272 272 271 271 271 271
Height
10215 10214 10214 10214 10214 10214 10213 10213 10213 10212 10213 10214 10215 10214 10214 10214 10213 10214 10214 10213 10213 10212 10211 10210 10210 10209 10206 10204 10205 10206 10205 10206 10205 10204 10205 10204 10202 10201 10198 10196 10196 10199 10202 10200 10198 10198 10198 10198 10198 10197 10196 10194 10192 10191 10189 10187 10186 10184 10182 10182 10180 10178 10175
10202 10202 10202 10202 10201 10200 10199 10198 10198 10198 10198 10200 10200 10200 10200 10200 10200 10200 10200 10200 10200 10198 10196 10196 10197 10196 10192 10190 10191 10192 10190 10190 10188 10188 10188 10188 10187 10186 10185 10183 10182 10183 10184 10184 10182 10180 10182 10183 10182 10182 10180 10178 10176 10174 10174 10172 10172 10171 10170 10168 10166 10164 10162
10190 10190 10189 10188 10188 10186 10186 10184 10184 10183 10184 10184 10185 10185 10186 10186 10186 10186 10186 10186 10186 10184 10184 10184 10184 10183 10179 10176 10178 10178 10176 10174 10172 10171 10171 10171 10170 10170 10170 10170 10168 10168 10170 10170 10167 10164 10164 10165 10166 10166 10164 10162 10159 10158 10158 10157 10156 10156 10155 10154 10152 10151 10149
10178 10177 10176 10176 10174 10173 10172 10171 10170 10170 10170 10169 10169 10169 10170 10170 10170 10172 10172 10172 10172 10171 10171 10172 10172 10170 10166 10164 10165 10164 10162 10159 10157 10156 10156 10156 10155 10154 10154 10153 10152 10154 10154 10154 10154 10150 10148 10148 10148 10149 10147 10144 10142 10142 10142 10142 10140 10140 10140 10138 10137 10136 10136
10166 10165 10164 10162 10161 10160 10159 10158 10156 10156 10156 10154 10154 10154 10154 10154 10154 10155 10156 10156 10156 10156 10156 10158 10158 10156 10153 10152 10152 10151 10148 10144 10143 10142 10142 10142 10140 10139 10138 10136 10136 10137 10138 10138 10139 10137 10134 10133 10132 10130 10128 10128 10128 10126 10126 10126 10124 10123 10122 10122 10122 10122 10122
10153 10152 10152 10151 10150 10148 10148 10146 10144 10144 10142 10141 10140 10140 10139 10139 10139 10140 10140 10140 10140 10140 10140 10142 10142 10141 10139 10138 10138 10136 10133 10130 10129 10128 10128 10128 10126 10124 10122 10122 10121 10120 10120 10122 10123 10122 10120 10118 10115 10112 10110 10111 10111 10110 10110 10108 10106 10106 10106 10106 10106 10105 10104
10140 10140 10140 10138 10138 10136 10136 10134 10133 10132 10130 10129 10128 10127 10126 10126 10125 10125 10124 10125 10125 10124 10124 10125 10125 10124 10123 10122 10122 10120 10118 10116 10115 10114 10114 10113 10112 10109 10108 10106 10106 10106 10106 10106 10106 10106 10104 10102 10098 10096 10094 10093 10092 10092 10092 10090 10089 10090 10091 10088 10088 10088 10086
10126 10126 10125 10125 10124 10124 10122 10122 10120 10120 10118 10118 10116 10115 10114 10114 10112 10112 10112 10112 10111 10110 10109 10109 10108 10108 10107 10106 10105 10104 10102 10101 10100 10098 10098 10097 10095 10093 10092 10092 10091 10090 10090 10090 10090 10089 10088 10084 10082 10081 10079 10077 10075 10074 10072 10071 10072 10074 10074 10070 10070 10070 10068
10112 10112 10110 10110 10110 10110 10108 10108 10107 10106 10106 10105 10104 10103 10102 10102 10100 10100 10099 10098 10098 10096 10096 10094 10094 10092 10091 10090 10089 10088 10086 10084 10082 10082 10081 10080 10078 10077 10076 10076 10075 10075 10074 10074 10074 10072 10070 10068 10067 10066 10063 10061 10060 10057 10056 10055 10055 10058 10056 10052 10052 10052 10048
10098 10098 10096 10096 10095 10094 10094 10093 10092 10091 10090 10090 10090 10090 10090 10089 10088 10087 10086 10086 10085 10084 10082 10081 10080 10078 10077 10076 10074 10072 10070 10068 10066 10066 10064 10064 10062 10062 10060 10060 10059 10060 10059 10058 10058 10056 10054 10052 10052 10050 10046 10044 10044 10042 10040 10040 10040 10040 10039 10036 10036 10036 10032
10084 10084 10082 10082 10080 10079 10078 10077 10076 10076 10076 10076 10075 10075 10075 10074 10074 10073 10072 10072 10072 10070 10069 10067 10066 10064 10062 10061 10060 10057 10054 10052 10052 10050 10048 10048 10047 10046 10044 10044 10044 10044 10043 10042 10041 10040 10038 10038 10037 10034 10029 10028 10028 10026 10025 10026 10024 10024 10022 10020 10020 10020 10017
10070 10070 10068 10068 10067 10065 10064 10062 10060 10060 10060 10060 10060 10059 10059 10060 10060 10058 10058 10058 10058 10057 10055 10053 10052 10050 10048 10047 10044 10042 10040 10038 10036 10034 10032 10032 10031 10030 10029 10028 10028 10027 10026 10026 10025 10024 10023 10022 10020 10016 10014 10013 10012 10010 10010 10009 10008 10006 10006 10004 10004 10004 10001
10056 10054 10054 10053 10052 10052 10050 10046 10044 10044 10044 10044 10043 10042 10042 10043 10044 10044 10044 10044 10042 10042 10040 10038 10037 10036 10035 10033 10030 10027 10025 10022 10020 10018 10016 10016 10016 10014 10014 10013 10012 10010 10010 10009 10008 10008 10008 10005 10002 10002 10000 9997 9994 9994 9994 9992 9990 9989 9988 9988 9989 9988 9984
10039 10038 10037 10037 10036 10036 10034 10032 10028 10028 10028 10026 10026 10024 10024 10026 10027 10028 10028 10028 10027 10026 10024 10023 10022 10020 10020 10018 10015 10012 10010 10006 10004 10002 10001 10000 10000 10000 9998 9997 9996 9995 9993 9992 9990 9990 9990 9988 9986 9986 9984 9981 9978 9978 9978 9975 9973 9972 9972 9972 9973 9971 9968
10022 10021 10020 10020 10020 10020 10019 10016 10012 10012 10012 10010 10009 10008 10008 10008 10010 10010 10012 10012 10012 10010 10008 10006 10005 10004 10005 10004 10000 9998 9994 9991 9988 9986 9985 9986 9986 9984 9983 9982 9980 9979 9977 9976 9974 9974 9973 9971 9970 9970 9968 9965 9962 9960 9960 9958 9958 9958 9956 9956 9956 9956 9954
10006 10004 10004 10003 10002 10002 10002 10000 9996 9995 9996 9995 9993 9992 9992 9992 9992 9994 9994 9996 9995 9994 9992 9990 9988 9988 9987 9986 9985 9982 9978 9974 9972 9970 9970 9970 9969 9968 9967 9966 9965 9962 9960 9960 9958 9957 9956 9956 9955 9954 9952 9949 9946 9944 9942 9942 9942 9942 9940 9939 9941 9942 9939
9990 9988 9988 9986 9984 9984 9984 9984 9980 9978 9978 9978 9976 9975 9976 9976 9976 9976 9977 9977 9976 9976 9975 9974 9972 9971 9970 9968 9968 9965 9962 9958 9954 9953 9953 9953 9952 9952 9952 9952 9950 9946 9944 9942 9942 9942 9942 9942 9940 9937 9934 9932 9929 9928 9926 9925 9927 9926 9924 9924 9927 9926 9922
9974 9972 9970 9970 9968 9966 9966 9966 9963 9960 9959 9959 9958 9958 9958 9958 9958 9959 9960 9958 9958 9957 9957 9958 9956 9954 9954 9952 9950 9947 9944 9940 9938 9937 9936 9936 9936 9935 9936 9936 9932 9928 9926 9926 9926 9928 9928 9926 9922 9918 9916 9914 9912 9912 9910 9910 9910 9909 9907 9910 9912 9909 9905
9956 9955 9954 9952 9951 9950 9949 9949 9946 9942 9940 9940 9940 9940 9940 9941 9942 9942 9942 9940 9940 9940 9940 9940 9939 9938 9936 9934 9932 9930 9926 9924 9922 9921 9920 9918 9918 9920 9920 9918 9912 9910 9910 9911 9912 9913 9912 9909 9905 9900 9898 9897 9896 9895 9894 9894 9894 9892 9890 9892 9894 9892 9890
9939 9938 9938 9935 9934 9933 9932 9932 9930 9926 9924 9922 9922 9921 9922 9924 9925 9925 9924 9922 9922 9923 9922 9922 9920 9919 9917 9914 9912 9911 9908 9906 9906 9906 9903 9901 9902 9904 9902 9898 9895 9895 9895 9894 9895 9896 9894 9891 9888 9884 9882 9880 9880 9879 9878 9876 9876 9877 9876 9876 9875 9874 9872
9922 9922 9922 9919 9916 9915 9915 9914 9912 9911 9908 9906 9904 9903 9903 9905 9908 9908 9907 9906 9906 9906 9906 9905 9903 9900 9898 9896 9894 9893 9890 9888 9888 9888 9887 9886 9886 9886 9882 9880 9880 9880 9878 9878 9878 9876 9875 9874 9872 9868 9866 9864 9864 9862 9860 9859 9860 9860 9860 9859 9858 9856 9856
9904 9904 9905 9903 9899 9898 9898 9896 9894 9894 9892 9889 9886 9886 9884 9886 9888 9889 9888 9890 9892 9892 9890 9888 9886 9883 9880 9878 9877 9876 9872 9869 9868 9868 9870 9870 9868 9866 9864 9864 9864 9862 9860 9860 9860 9858 9858 9858 9855 9852 9850 9848 9846 9844 9843 9843 9844 9844 9843 9842 9840 9840 9841
9886 9887 9887 9886 9883 9882 9880 9877 9876 9876 9874 9872 9870 9868 9866 9866 9869 9870 9870 9871 9874 9875 9873 9870 9868 9866 9862 9860 9860 9858 9854 9851 9848 9848 9851 9854 9850 9846 9846 9846 9846 9846 9844 9842 9842 9842 9842 9842 9840 9837 9834 9832 9828 9826 9826 9827 9828 9828 9826 9825 9824 9824 9826
9869 9868 9868 9868 9866 9864 9862 9858 9858 9857 9856 9853 9852 9850 9850 9849 9851 9852 9852 9852 9854 9856 9855 9853 9850 9848 9845 9842 9842 9839 9836 9834 9831 9828 9830 9834 9832 9828 9828 9828 9830 9830 9827 9826 9826 9827 9827 9826 9823 9820 9818 9814 9812 9810 9810 9809 9809 9810 9810 9810 9809 9809 9810
9852 9850 9850 9850 9849 9848 9845 9842 9839 9837 9836 9834 9832 9832 9832 9833 9834 9835 9834 9834 9834 9836 9836 9836 9833 9830 9828 9825 9823 9820 9818 9816 9814 9810 9809 9812 9813 9812 9812 9812 9814 9812 9810 9810 9810 9810 9810 9810 9807 9804 9802 9799 9796 9794 9792 9790 9791 9793 9794 9794 9794 9794 9794
9836 9834 9833 9832 9832 9832 9829 9824 9821 9819 9818 9816 9814 9814 9814 9815 9817 9818 9817 9816 9816 9816 9818 9817 9815 9813 9812 9809 9806 9804 9801 9800 9798 9794 9790 9790 9792 9795 9797 9798 9798 9796 9795 9794 9792 9792 9792 9792 9790 9788 9786 9784 9780 9778 9776 9774 9774 9776 9778 9778 9778 9778 9778
9818 9816 9816 9816 9816 9814 9812 9808 9805 9803 9802 9800 9798 9796 9794 9796 9799 9800 9800 9800 9798 9798 9798 9798 9797 9795 9794 9792 9790 9788 9785 9784 9782 9778 9774 9772 9772 9776 9780 9782 9782 9782 9781 9778 9776 9774 9774 9774 9774 9772 9770 9767 9764 9762 9758 9757 9758 9760 9761 9762 9762 9761 9760
9799 9798 9796 9798 9798 9796 9794 9792 9790 9786 9784 9784 9782 9780 9778 9777 9779 9782 9782 9782 9782 9780 9780 9780 9779 9778 9776 9775 9773 9771 9769 9768 9766 9763 9760 9756 9756 9756 9760 9763 9765 9766 9764 9762 9760 9759 9760 9760 9760 9757 9754 9751 9748 9745 9742 9742 9744 9744 9744 9744 9744 9743 9742
9781 9779 9778 9778 9780 9778 9777 9776 9772 9768 9766 9767 9767 9765 9762 9758 9758 9761 9764 9765 9764 9762 9762 9762 9761 9760 9759 9758 9756 9754 9753 9752 9750 9748 9746 9744 9742 9742 9742 9744 9745 9746 9744 9743 9742 9744 9745 9746 9745 9744 9740 9738 9735 9732 9730 9730 9730 9729 9728 9727 9726 9726 9726
9765 9763 9761 9761 9762 9760 9760 9760 9756 9750 9748 9750 9751 9748 9744 9742 9741 9742 9744 9746 9746 9745 9744 9743 9742 9742 9742 9742 9741 9739 9738 9736 9734 9732 9731 9730 9728 9728 9727 9726 9726 9726 9725 9724 9726 9726 9727 9728 9728 9728 9726 9724 9722 9720 9718 9717 9716 9715 9714 9712 9711 9711 9711
9748 9748 9746 9746 9746 9743 9742 9741 9740 9736 9734 9734 9732 9730 9729 9728 9726 9724 9724 9726 9728 9728 9726 9725 9724 9724 9724 9724 9724 9724 9722 9720 9719 9718 9716 9714 9713 9713 9712 9710 9710 9710 9710 9709 9708 9708 9708 9710 9711 9710 9709 9708 9706 9705 9704 9702 9702 9701 9700 9698 9697 9696 9695
9729 9730 9730 9731 9730 9728 9726 9724 9722 9722 9720 9718 9714 9714 9714 9714 9712 9709 9708 9708 9710 9710 9710 9708 9708 9707 9706 9706 9706 9706 9706 9704 9704 9703 9700 9698 9698 9698 9697 9696 9695 9695 9695 9694 9692 9691 9692 9693 9694 9694 9692 9692 9691 9690 9689 9688 9688 9686 9686 9684 9682 9682 9680
9713 9712 9714 9714 9714 9714 9712 9710 9706 9704 9704 9702 9700 9700 9700 9698 9696 9694 9694 9694 9693 9692 9692 9692 9692 9690 9690 9690 9690 9690 9690 9690 9689 9688 9686 9684 9683 9682 9682 9682 9681 9680 9680 9679 9678 9676 9676 9677 9677 9677 9676 9676 9676 9676 9675 9674 9673 9672 9671 9670 9668 9667 9666
9700 9699 9698 9697 9696 9697 9698 9696 9693 9690 9687 9686 9685 9685 9685 9683 9681 9679 9678 9680 9680 9676 9674 9676 9677 9676 9674 9674 9674 9674 9674 9674 9674 9672 9672 9672 9670 9668 9668 9668 9668 9666 9665 9664 9664 9664 9662 9662 9662 9662 9662 9662 9662 9661 9660 9660 9659 9658 9658 9656 9655 9654 9654
9684 9686 9686 9683 9681 9681 9682 9681 9679 9676 9674 9672 9670 9670 9670 9668 9667 9664 9664 9665 9666 9662 9658 9658 9660 9661 9660 9658 9658 9660 9660 9659 9658 9658 9658 9658 9656 9655 9654 9654 9654 9652 9650 9650 9650 9650 9648 9648 9648 9648 9647 9647 9646 9646 9646 9645 9645 9645 9644 9643 9642 9642 9642
9664 9668 9671 9671 9670 9668 9666 9664 9664 9662 9661 9659 9658 9657 9655 9654 9652 9651 9650 9649 9650 9650 9645 9642 9642 9644 9644 9644 9644 9644 9644 9644 9644 9643 9643 9644 9643 9642 9641 9640 9640 9639 9638 9636 9636 9636 9636 9636 9634 9633 9632 9632 9632 9632 9632 9632 9632 9632 9632 9630 9630 9630 9630